[[{"header":{"parameterUnit":"m.s-1","parameterCategory":1,"la1":30.2991,"la2":30.254,"lo1":-89.0895,"lo2":-89.0444,"dy":0.0017,"dx":0.0017,"nx":28,"ny":28,"refTime":"2024-09-02T03:00:00:Z","depth":0,"parameterNumber":2,"parameterNumberName":"U-component_of_WINDS"},"data":[0,0,0,0,0,0,0,0,0,0,0,0,0,0,0,0,0,0,0,0,0,0,0,0,0,0,0,0,0,0,0,0,0,0,0,0,0,0,0,0,0,0,0,0,0,0,0,0,0,0,0,0,0,0,0,0,0,0,-8.2872,-8.2872,0,-8.2872,-8.2872,-8.2872,-8.2725,-8.2721,-8.2717,-8.2713,-8.2711,-8.2715,-8.2718,0,0,0,0,0,0,0,0,0,0,0,0,0,-8.2743,-8.2746,-8.2872,-8.2872,-8.2872,-8.2872,-8.2872,-8.2872,-8.2725,-8.2721,-8.2716,-8.2712,-8.271,-8.2714,-8.2718,0,0,0,0,0,0,0,0,0,0,0,0,0,-8.2777,-8.2747,-8.2872,-8.2799,-8.2792,-8.2872,-8.2872,-8.2872,-8.2726,-8.2721,-8.2715,-8.2709,-8.2709,-8.2714,-8.2719,-8.2868,0,0,-8.2735,-8.2738,0,0,0,0,0,0,0,0,-8.2775,-8.2782,-8.281,-8.2804,-8.2797,-8.2792,-8.2825,-8.287,-8.2728,-8.2751,-8.2713,-8.2707,-8.2743,-8.2745,-8.2758,-8.2868,-8.2868,-8.2736,-8.2739,-8.2741,-8.2743,0,0,0,0,0,0,0,-8.2773,-8.2781,-8.2872,-8.281,-8.2802,-8.2765,-8.2764,-8.2833,-8.2779,-8.2749,-8.2738,-8.274,-8.2738,-8.2753,-8.2756,-8.2868,-8.2736,-8.274,-8.2744,-8.2746,-8.3097,-8.3102,0,0,0,0,0,0,-8.2781,-8.278,-8.2872,-8.2872,-8.2772,-8.2773,-8.2771,-8.28,-8.2778,-8.277,-8.2745,-8.2733,-8.2747,-8.275,-8.2756,-8.2924,-8.2741,-8.2746,-8.2749,-8.3091,-8.3098,-8.3105,0,0,0,0,0,0,-8.2779,-8.279,-8.2872,-8.2823,-8.283,-8.2781,-8.2815,-8.2803,-8.2817,-8.2776,-8.2765,-8.277,-8.2742,-8.2748,-8.284,-8.2922,-8.2749,-8.2753,-8.3083,-8.3093,-8.3101,-8.3265,0,0,0,0,0,0,-8.2776,-8.2791,-8.2847,-8.2825,-8.2834,-8.2957,-8.282,-8.2807,-8.2827,-8.2811,-8.2796,-8.2788,-8.2738,-8.2833,-8.2846,-8.2926,-8.2758,-8.3075,-8.3087,-8.3098,-8.3252,-8.3279,-8.3302,0,0,0,0,0,-8.2771,-8.2893,-8.285,-8.2862,-8.2903,-8.2962,-8.2967,-8.2907,-8.2834,-8.2889,-8.2863,-8.2788,-8.2913,-8.2844,-8.2857,-8.294,-8.307,-8.3084,-8.3097,-8.3241,-8.3273,-8.3301,0,0,0,0,0,0,-8.2924,-8.2889,-8.2841,-8.2959,-8.2965,-8.2937,-8.3004,-8.2944,-8.297,-8.2954,-8.288,-8.2878,-8.298,-8.2971,-8.2894,-8.3082,-8.2978,-8.2995,-8.3083,-8.3114,-8.3138,-8.3135,-8.2762,0,0,0,0,0,-8.2972,-8.3024,-8.299,-8.3098,-8.3103,-8.3055,-8.3078,-8.3032,-8.3035,-8.3036,-8.3016,-8.3021,-8.306,-8.3088,-8.3122,-8.3253,-8.3245,-8.3317,-8.3342,-8.3362,-8.3375,-8.3439,-8.3469,-8.315,-8.315,-8.315,0,0,-8.307,-8.3057,-8.3094,-8.3128,-8.3127,-8.318,-8.3057,-8.312,-8.3157,-8.3045,-8.3128,-8.3116,-8.3116,-8.3227,-8.3275,-8.3222,-8.3463,-8.338,-8.3396,-8.3398,-8.3457,-8.3487,-8.3514,-8.3159,-8.3158,-8.3156,0,0,-8.3274,-8.3273,-8.3359,-8.3362,-8.3362,-8.3329,-8.3351,-8.3333,-8.3319,-8.3404,-8.3319,-8.3365,-8.3436,-8.3438,-8.3449,-8.3658,-8.3589,-8.3673,-8.3799,-8.3863,-8.3888,-8.3909,-8.3978,-8.4005,-8.3688,-8.3688,-8.3688,0,-8.3395,-8.3472,-8.3412,-8.3479,-8.3495,-8.3399,-8.3485,-8.349,-8.3502,-8.3515,-8.3457,-8.3543,-8.3537,-8.3645,-8.3696,-8.371,-8.373,-8.367,-8.3889,-8.3911,-8.393,-8.3995,-8.4021,-8.3697,-8.3696,-8.3695,-8.3695,0,-8.3618,-8.3674,-8.3745,-8.3758,-8.3784,-8.3861,-8.3811,-8.3844,-8.3798,-8.3771,-8.3857,-8.3848,-8.3877,-8.3901,-8.3857,-8.4003,-8.3969,-8.3903,-8.3795,-8.3971,-8.403,-8.4055,-8.3711,-8.3708,-8.3705,-8.3703,0,0,-8.3911,-8.3893,-8.3919,-8.3923,-8.3919,-8.396,-8.4034,-8.4063,-8.409,-8.4104,-8.416,-8.4225,-8.4162,-8.4175,-8.4131,-8.4188,-8.4348,-8.4112,-8.4111,-8.4151,-8.4502,-8.4547,-8.4577,-8.4306,-8.431,-8.4314,-8.45,0,-8.4104,-8.4226,-8.4175,-8.4301,-8.435,-8.4261,-8.4325,-8.4328,-8.4307,-8.4345,-8.4321,-8.4365,-8.4282,-8.4288,-8.4342,-8.4317,-8.4416,-8.4304,-8.4353,-8.4355,-8.4347,-8.4609,-8.4657,-8.4833,-8.4524,-8.4528,-8.4531,0,-8.4343,-8.4366,-8.4497,-8.4482,-8.4501,-8.4559,-8.4581,-8.462,-8.4622,-8.4603,-8.4619,-8.4562,-8.4631,-8.4532,-8.4624,-8.4549,-8.4568,-8.4559,-8.4565,-8.456,-8.4448,-8.4605,-8.4888,-8.4912,-8.4568,-8.4565,-8.4562,0,-8.4535,-8.46,-8.4685,-8.4693,-8.468,-8.4722,-8.4718,-8.4716,-8.4736,-8.4757,-8.4769,-8.4799,-8.4813,-8.4837,-8.4789,-8.4722,-8.4887,-8.4785,-8.4869,-8.487,-8.49,-8.4898,-8.5183,-8.4927,-8.4926,-8.4926,-8.4925,0,-8.475,-8.4833,-8.4771,-8.4823,-8.4913,-8.4855,-8.4945,-8.4932,-8.4931,-8.4977,-8.4906,-8.4951,-8.4889,-8.4929,-8.4894,-8.4973,-8.4982,-8.4965,-8.4953,-8.4967,-8.4968,-8.4972,-8.4955,-8.4933,-8.4931,-8.493,-8.4928,0,-8.4976,-8.4939,-8.5026,-8.5008,-8.5005,-8.5071,-8.5055,-8.5102,-8.5078,-8.5138,-8.5149,-8.511,-8.5153,-8.511,-8.5151,-8.5127,-8.5232,-8.5206,-8.523,-8.522,-8.5304,-8.5294,-8.5595,-8.5629,-8.5358,-8.5361,-8.5363,0,-8.5112,-8.5173,-8.5162,-8.5188,-8.5189,-8.5234,-8.5255,-8.5202,-8.5227,-8.5235,-8.5281,-8.5318,-8.5344,-8.5417,-8.5391,-8.5422,-8.5391,-8.5496,-8.5395,-8.5406,-8.5384,-8.5378,-8.5382,-8.5513,-8.5516,-8.5519,-8.5521,0,-8.5354,-8.5333,-8.5367,-8.5395,-8.5422,-8.5441,-8.5455,-8.5481,-8.5427,-8.5458,-8.5501,-8.5522,-8.5564,-8.56,-8.5624,-8.5619,-8.556,-8.5555,-8.5574,-8.5584,-8.5593,-8.5583,-8.5277,-8.5545,-8.5543,-8.5541,-8.554,-8.5539,-8.5533,-8.5582,-8.5582,-8.5621,-8.5627,-8.5642,-8.5683,-8.5666,-8.5701,-8.573,-8.5699,-8.575,-8.5752,-8.5777,-8.578,-8.5819,-8.5775,-8.5805,-8.5812,-8.5818,-8.5827,-8.5595,-8.5825,-8.5824,-8.5823,-8.5823,-8.5822,0,-8.5765,-8.5762,-8.58,-8.5821,-8.5852,-8.5799,-8.5811,-8.584,-8.5886,-8.5894,-8.5921,-8.5971,-8.6006,-8.5986,-8.6016,-8.6052,-8.6025,-8.6061,-8.6053,-8.6052,-8.5868,-8.5845,-8.6081,-8.6081,-8.6081,-8.6081,-8.6081,-8.6081,-8.5889,-8.5967,-8.5948,-8.6028,-8.6024,-8.6074,-8.6085,-8.6098,-8.6103,-8.6161,-8.619,-8.6178,-8.6174,-8.6204,-8.6234,-8.6227,-8.6238,-8.6282,-8.6265,-8.6091,-8.6066,-8.6041,-8.6018,-8.6287,-8.6287,-8.6444,-8.6446,-8.6447]},{"header":{"parameterUnit":"m.s-1","parameterCategory":1,"la1":30.2991,"la2":30.254,"lo1":-89.0895,"lo2":-89.0444,"dy":0.0017,"dx":0.0017,"nx":28,"ny":28,"refTime":"2024-09-02T03:00:00:Z","depth":0,"parameterNumber":3,"parameterNumberName":"V-component_of_WINDS"},"data":[0,0,0,0,0,0,0,0,0,0,0,0,0,0,0,0,0,0,0,0,0,0,0,0,0,0,0,0,0,0,0,0,0,0,0,0,0,0,0,0,0,0,0,0,0,0,0,0,0,0,0,0,0,0,0,0,0,0,0.315,0.3152,0,0.3291,0.3292,0.3294,0.3299,0.3297,0.3295,0.3294,0.3442,0.3447,0.3453,0,0,0,0,0,0,0,0,0,0,0,0,0,0.2891,0.2896,0.315,0.3152,0.3154,0.3291,0.3292,0.3294,0.3299,0.3297,0.3295,0.3293,0.344,0.3447,0.3453,0,0,0,0,0,0,0,0,0,0,0,0,0,0.3015,0.2897,0.315,0.3172,0.3176,0.329,0.3293,0.3295,0.33,0.3297,0.3294,0.3292,0.3438,0.3446,0.3454,0.3557,0,0,0.348,0.3483,0,0,0,0,0,0,0,0,0.3008,0.3024,0.3167,0.3171,0.3175,0.3275,0.3255,0.3383,0.33,0.3253,0.3294,0.3291,0.3389,0.3401,0.3433,0.3564,0.357,0.348,0.3485,0.3489,0.3491,0,0,0,0,0,0,0,0.2999,0.3018,0.3206,0.317,0.3174,0.3177,0.3192,0.328,0.3334,0.3257,0.3257,0.3274,0.339,0.3425,0.3436,0.3572,0.348,0.3487,0.3493,0.3496,0.3798,0.3801,0,0,0,0,0,0,0.2985,0.3011,0.3202,0.321,0.3083,0.3184,0.32,0.3245,0.3333,0.3343,0.3276,0.3273,0.3412,0.3427,0.3442,0.3571,0.3489,0.3497,0.3501,0.3795,0.3798,0.3802,0,0,0,0,0,0,0.298,0.3002,0.3196,0.3111,0.3136,0.3191,0.3242,0.3249,0.3284,0.3347,0.3357,0.3301,0.3411,0.343,0.3529,0.3576,0.35,0.3508,0.3791,0.3796,0.38,0.3828,0,0,0,0,0,0,0.2972,0.3,0.3039,0.3112,0.314,0.3279,0.3244,0.3254,0.3298,0.3296,0.3373,0.3384,0.341,0.3516,0.3537,0.3586,0.3514,0.3787,0.3793,0.3799,0.3823,0.3833,0.3841,0,0,0,0,0,0.2963,0.3041,0.3041,0.3064,0.3189,0.3282,0.3298,0.3326,0.3302,0.3342,0.3382,0.3381,0.3566,0.3526,0.355,0.3602,0.3785,0.3792,0.3798,0.3819,0.3831,0.3841,0,0,0,0,0,0,0.2974,0.3051,0.3052,0.3155,0.3212,0.3282,0.3334,0.3337,0.3403,0.3399,0.3431,0.3449,0.3548,0.3584,0.3538,0.3707,0.3673,0.3685,0.3681,0.3693,0.3702,0.3693,0.3521,0,0,0,0,0,0.2988,0.3055,0.312,0.3205,0.3233,0.3279,0.332,0.3336,0.3397,0.3421,0.3469,0.3529,0.3601,0.3648,0.3717,0.3827,0.3846,0.3874,0.3883,0.3891,0.3902,0.3966,0.3981,0.3824,0.3824,0.3824,0,0,0.3019,0.3069,0.311,0.3209,0.3255,0.3326,0.3299,0.3375,0.3429,0.3433,0.3531,0.3567,0.3636,0.3742,0.379,0.3775,0.3949,0.3899,0.3904,0.3912,0.3975,0.399,0.4003,0.3829,0.3828,0.3827,0,0,0.3113,0.3156,0.3233,0.328,0.3349,0.3378,0.3397,0.3467,0.3492,0.3589,0.3594,0.3659,0.3781,0.3832,0.3873,0.3985,0.3989,0.4007,0.4056,0.4118,0.4131,0.4142,0.4187,0.4202,0.4017,0.4017,0.4017,0,0.3143,0.3249,0.3273,0.335,0.3395,0.3399,0.348,0.3524,0.3613,0.3645,0.3625,0.378,0.3827,0.3946,0.3973,0.4005,0.403,0.4001,0.4127,0.4138,0.4149,0.4192,0.4208,0.4019,0.4019,0.4019,0.4018,0,0.3286,0.3359,0.3413,0.3499,0.3549,0.3627,0.3664,0.3712,0.3724,0.3756,0.3856,0.3912,0.3994,0.4023,0.4034,0.4144,0.4133,0.4119,0.4087,0.4166,0.4207,0.4223,0.4022,0.4021,0.4021,0.402,0,0,0.3394,0.349,0.351,0.355,0.3626,0.3685,0.3763,0.3842,0.3885,0.3945,0.4015,0.4118,0.4107,0.4154,0.4171,0.4225,0.4316,0.4205,0.4208,0.4228,0.4445,0.4459,0.4477,0.4315,0.4319,0.4321,0.4441,0,0.35,0.3639,0.3663,0.3786,0.3857,0.3862,0.3931,0.3986,0.4018,0.4083,0.4118,0.4193,0.417,0.4199,0.4252,0.4293,0.436,0.4284,0.4385,0.4388,0.4373,0.4498,0.4512,0.4622,0.4456,0.4459,0.4461,0,0.3643,0.3706,0.3837,0.3905,0.3935,0.3997,0.4073,0.4134,0.4197,0.4217,0.4269,0.428,0.4365,0.4324,0.4443,0.4391,0.4432,0.4459,0.4464,0.4479,0.4433,0.4521,0.4658,0.4677,0.4486,0.4484,0.4482,0,0.3715,0.3832,0.3927,0.396,0.404,0.4084,0.412,0.4181,0.4228,0.4294,0.4325,0.44,0.4442,0.4501,0.4533,0.4499,0.4651,0.4612,0.4674,0.4673,0.471,0.4708,0.4861,0.4728,0.4727,0.4727,0.4727,0,0.3834,0.3914,0.396,0.4019,0.411,0.4136,0.4226,0.4262,0.4315,0.4383,0.439,0.4453,0.4489,0.4558,0.4583,0.468,0.4698,0.4719,0.4726,0.4721,0.472,0.4753,0.4749,0.4732,0.4731,0.473,0.4729,0,0.3932,0.3965,0.4069,0.4136,0.4155,0.422,0.4279,0.4337,0.4367,0.4452,0.4474,0.4522,0.4604,0.464,0.4741,0.4758,0.4871,0.4869,0.4849,0.4853,0.4915,0.491,0.5099,0.5127,0.497,0.4971,0.4972,0,0.4009,0.4071,0.4145,0.4189,0.4226,0.4298,0.4346,0.4373,0.4423,0.45,0.455,0.4631,0.4698,0.4829,0.4875,0.4952,0.4956,0.5017,0.4968,0.4963,0.4964,0.4962,0.4971,0.5028,0.5029,0.503,0.5031,0,0.4143,0.4156,0.4223,0.4297,0.4354,0.4413,0.4472,0.4508,0.4545,0.4601,0.4684,0.4736,0.4838,0.4921,0.5001,0.504,0.5045,0.5045,0.5065,0.5064,0.5053,0.5065,0.4879,0.5042,0.5041,0.504,0.504,0.5039,0.4237,0.4293,0.4355,0.443,0.4476,0.4531,0.459,0.4627,0.4696,0.4781,0.4793,0.4883,0.4946,0.5054,0.5096,0.5168,0.5154,0.518,0.5188,0.5196,0.5203,0.5036,0.5182,0.5182,0.5181,0.5181,0.5181,0,0.4376,0.4415,0.4484,0.4565,0.4625,0.4619,0.4683,0.4735,0.4814,0.4871,0.4937,0.5033,0.5113,0.5164,0.5245,0.5293,0.5298,0.5314,0.5314,0.5324,0.5208,0.5186,0.531,0.531,0.531,0.531,0.531,0.531,0.4456,0.4553,0.4573,0.4694,0.4733,0.482,0.4858,0.4909,0.4956,0.5063,0.5129,0.516,0.5217,0.5302,0.5376,0.5389,0.5421,0.544,0.5453,0.5345,0.5332,0.5319,0.5299,0.5445,0.5445,0.5564,0.5565,0.5566]}]]